Regional Weather Roundup
Issued by NWS Wakefield, VA

Home | Current Version | Previous Version | Graphics & Text | Print | Product List | Glossary On
Versions: 1 2 3 4 5 6 7 8 9 10 11 12 13 14 15 16 17 18 19 20 21 22 23 24 25 26 27
000
ASUS41 KAKQ 190114
RWRAKQ

REGIONAL WEATHER ROUNDUP
NATIONAL WEATHER SERVICE WAKEFIELD VA
800 PM EST SAT FEB 18 2017

Note: "fair" indicates few or no clouds below 12,000 feet with no
significant weather and/or obstructions to visibility. * = Denotes
station may not report precipitation (e.g., rain,snow,etc.),
thunder or fog.

VAZ042-051-052>054-056-190200-
NORTHERN VIRGINIA

CITY           SKY/WX    TMP DP  RH WIND       PRES   REMARKS
WASH NATIONAL  CLOUDY    58  33  39 S7        29.77S
DULLES         MOCLDY    54  30  40 CALM      29.77F
FORT BELVOIR   MOCLDY    56  34  43 CALM      29.77S
QUANTICO       CLOUDY    51  40  65 CALM      29.79S
FREDERICKSBRG* CLOUDY    61  35  37 SW6       29.78S
STAFFORD*      CLOUDY    65  30  27 SW3       29.83R
WARRENTON      CLOUDY    65  24  21 SW5       29.78R
CULPEPER*      CLOUDY    60  35  37 SW3       29.79R
MANASSAS*      MOCLDY    55  36  48 CALM      29.78S
LEESBURG*      CLOUDY    59  34  38 CALM      29.78S
WINCHESTER     PTCLDY    55  32  41 W5        29.77F
FRONT ROYAL*   CLOUDY    64  32  29 SW3       29.78S
LURAY*         CLOUDY    61  34  36 SW3       29.80R
$$

VAZ048-049-060>072-079>083-190200-
CENTRAL AND SOUTH CENTRAL VIRGINIA

CITY           SKY/WX    TMP DP  RH WIND       PRES   REMARKS
RICHMOND       CLOUDY    65  32  29 SW12      29.81S
CHESTERFIELD*  NOT AVBL
PETERSBURG*    MOCLDY    62  29  28 SW5       29.83S
HANOVER        CLOUDY    63  30  28 S5        29.81F
TAPPAHANNOCK*  CLOUDY    66  15  14 SW3       29.81S
QUINTON*       FAIR      64  33  31 S5        29.80S
CHARLOTTSVILLE CLOUDY    67  29  24 VRB3      29.80R
GORDONSVILLE*  CLOUDY    59  34  39 CALM      29.79S
ORANGE*        CLOUDY    61  32  33 CALM      29.80S
LOUISA*        CLOUDY    70  36  28 SW3       29.79S
BUMPASS*       FAIR      63  31  30 CALM      29.79S
FARMVILLE*     CLOUDY    65  30  26 SW5       29.81S
CREWE*         FAIR      64  32  30 SW5       29.82F
FORT PICKETT*  FAIR      63  21  19 SW9       29.83S
CHASE CITY*    MOCLDY    64  31  29 S5        29.85R
CLARKSVILLE*   MOCLDY    63  34  34 SW7       29.85S
SOUTH HILL*    PTCLDY    65  33  29 SW10G17   29.89F
LAWRENCEVILLE* FAIR      63  32  30 MISG      29.84S
EMPORIA*       CLOUDY    63  34  34 S5        29.86S
$$

VAZ088>098-190200-
SOUTHEAST VIRGINIA

CITY           SKY/WX    TMP DP  RH WIND       PRES   REMARKS
NORFOLK        CLOUDY    66  36  32 SW14      29.83S
VIRGINIA BEACH CLOUDY    63  34  33 SW10      29.83S
NORFOLK NAVAL  CLOUDY    66  35  31 SW10      29.85R
WEST POINT*    CLOUDY    62  33  34 S3        29.82S
SALUDA*        FAIR      64  37  36 SW5       29.81R
NEWPORT NEWS   CLOUDY    62  37  39 SW10      29.83S
LANGLEY AFB    CLOUDY    65  38  36 SW12      29.82S
FORT EUSTIS    CLOUDY    64  36  35 SW7       29.80F
WILLIAMSBURG*  CLOUDY    66  37  34 SW7       29.83S
HR EXEC AP*    NOT AVBL
FRANKLIN*      CLOUDY    64  35  34 SW6       29.85S
US460-WAKEFLD  MOCLDY    64  35  34 SW6       29.83F
$$

VAZ020-022-025-037-045-190200-
WEST CENTRAL AND SOUTHWEST VIRGINIA

CITY           SKY/WX    TMP DP  RH WIND       PRES   REMARKS
STAUNTON*      PTCLDY    59  30  33 S3        29.84S
WAYNESBORO*    CLOUDY    60  25  25 SW3       29.83F
HOT SPRINGS VA CLOUDY    50  25  37 W10       29.91R
LYNCHBURG      LGT RAIN  64  26  23 SW6       29.84S
DANVILLE       CLOUDY    64  31  28 SW8       29.86S
SOUTH BOSTON*  CLOUDY    65  30  26 S7        29.85S
MARTINSVILLE   CLOUDY    62  27  27 SW6       29.89S
ROANOKE        CLOUDY    62  32  32 CALM      29.86F
BLACKSBURG     LGT RAIN  55  36  49 CALM      29.89F
DUBLIN*        CLOUDY    54  37  52 W3        29.88F
MARION*        CLOUDY    51  32  49 W3        29.91F
HILLSVILLE*    CLOUDY    53  33  47 CALM      29.88R
RICHLANDS*     CLOUDY    50  31  47 CALM      29.90S
WISE*          CLOUDY    48  32  53 CALM      29.92R
ABINGDON*      CLOUDY    50  36  58 CALM      29.91R
$$

MDZ021>025-VAZ099-100-190200-
SOUTHERN MARYLAND AND THE DELMARVA PENINSULA

CITY           SKY/WX    TMP DP  RH WIND       PRES   REMARKS
PATUXENT RIVER CLOUDY    64  36  35 SW7       29.78S
BAY BRIDGE APT CLOUDY    43  39  87 CALM      29.77S
LEONARDTOWN    CLOUDY    64  30  27 SW6       29.79S
DOVER          CLOUDY    56  41  57 S7        29.75S
GEORGETOWN     CLOUDY    57  36  45 SW7       29.77F
EASTON         NOT AVBL
CAMBRIDGE      CLOUDY    50  39  66 SE5       29.78S
SALISBURY      CLOUDY    60  38  43 SW9       29.78S
OCEAN CITY     CLOUDY    53  40  61 SW9       29.79S
WALLOPS ISLAND CLOUDY    49  43  80 S9        29.81S
ACCOMACK*      CLOUDY    57  42  55 SW6       29.81S
$$

NCZ012>017-030>032-190200-
NORTH CENTRAL AND EASTERN NORTH CAROLINA

CITY           SKY/WX    TMP DP  RH WIND       PRES   REMARKS
ROANOKE RAPIDS FAIR      59  37  44 SW7       29.86S
RALEIGH        CLOUDY    65  30  27 W8        29.87F
ELIZABETH CITY CLOUDY    60  41  49 S7        29.86F
AHOSKIE*         N/A     59  39  46 CALM      29.86S
EDENTON*       CLOUDY    64  40  41 SW9       29.88S
CURRITUCK*     CLOUDY    62  38  41 S5        29.86F
KILL DEVIL HLS NOT AVBL
MANTEO         CLOUDY    57  43  59 SW12      29.88F
CAPE HATTERAS  CLOUDY    63  49  60 SW15      29.91F HAZE
TARBORO*       NOT AVBL
GOLDSBORO      CLOUDY    64  36  35 S7        29.88F
WASHINGTON     CLOUDY    64  36  35 SW7       29.89S
GREENVILLE     CLOUDY    64  36  34 SW9       29.92R
NEW BERN       CLOUDY    61  41  47 SW8       29.92F
WILMINGTON     CLOUDY    59  45  59 SW6       29.94S
$$

VAZ048-190200-
ELSEWHERE

CITY           SKY/WX    TMP DP  RH WIND       PRES   REMARKS
HARRISBURG PA  CLOUDY    55  34  45 SW9       29.71F
BALTIMORE      MOCLDY    55  32  41 SW3       29.76R
ANNAPOLIS      PTCLDY    47  40  76 CALM      29.77S
ANDREWS AFB    PTCLDY    61  31  32 SW7       29.76S
PHILADELPHIA   MOCLDY    57  34  41 SW10      29.74S
HENDERSON NC   CLOUDY    61  30  31 SW9       29.87S
GREENSBORO     CLOUDY    56  42  59 SW12      29.89S
ROCKY MOUNT    CLOUDY    63  38  39 SW8       29.88S
$$

VAZ100-190200-
MARINE

STATION/POSITION TIME  TEMP    WIND        PRES    WAVE   SWELL
                       AIR SEA DIR/SP/G            HT/PER HT/PER
                 (UTC) (F)     (DEG/KT/KT) (MB)    (FT/S) (FT/S)
CAPE MAY NJ      0042   49 39  160/  4/  5 1007.6S
LEWES DE         0042   62 40  240/  4/  8 1007.6F
OCEAN-CITY-INLET 0042   47 42  220/ 10/ 11 1008.9F
WACHAPREAGUE VA  0042   51 48  220/  4/  8 1009.6R
THOMAS POINT MD  0100   46 39  200/ 11/ 12   N/A
GOOSES REEF MD   0050   44     180/  6/  8 1008.9R
COVE POINT MD    0042   61     220/  6/  9 1008.9R
SOLOMONS ISLAND  0042   50 42   50/  1/  3   N/A
BISHOPS HEAD MD  0042   50 44  200/ 10/ 12 1008.7S
PINEY POINT MD   0036           60/  2/  3   N/A
POTOMAC MD       0050   55     250/  4/  6 1007.8R
CAMBRIDGE MD     0042   55 40  190/  2/  4 1007.5S
LEWISETTA VA     0048   66 43  250/  9/ 11 1008.4S
RAPPAHANNOCK LGT 0036          190/ 12/ 12 1010.0R
YORK RVR RNG VA  0048   60     230/ 16/ 17 1008.8F
YORKTOWN VA      0048   66 45  220/ 10/ 13 1009.2F
JAMESTOWN VA     0050   63     210/  6/  8   N/A
DOMINION TERM VA 0048   58     240/ 10/ 12 1010.3R
KIPTOPEKE VA     0048      46  200/  6/  9   N/A
CHES BAY BRIDGE  0048   64 44  230/ 15/ 15 1009.9F
CAPE HENRY VA    0048   66     220/  8/ 13   N/A
WILLOUBY STN VA  0048   63     230/ 17/ 18 1010.9R
S CRANEY ISL VA  0048   65     210/  8/ 12 1010.1R
CAPE HENRY BUOY  0042      46                N/A     2/10
OFFSHORE WE BUOY 0051      47                N/A     2/ 5
64NM E OF VA BCH 0050   55 51  220/ 17/ 19 1010.8R   4/ 5   2/ 9
DUCK PIER NC     0048   60 47  200/ 12/ 14 1010.5F
44100 DUCK FRF   0035      47                N/A     2/ 7
44056 DUCK FRF   0030      47                N/A     1/ 8
OREGON INLET NC  0048          200/ 16/ 19 1012.0F
HATTERAS NC      0048   61 55  220/ 12/ 17 1012.6F
DIAMOND SHLS NC  0050   67 67  230/ 23/ 27 1013.2F   4/ 5   2/ 8
CAPE LOOKOUT NC  0000   60     220/ 12/ 16 1013.7F
$$




USA.gov is the U.S. government's official web portal to all federal, state and local government web resources and services.